�������l�o���
Date,Time,MP-1(��Sv/h),MP-2(��Sv/h),MP-3(��Sv/h),MP-4(��Sv/h),MP-5(��Sv/h),MP-6(��Sv/h),MP-7(��Sv/h),MP-8(��Sv/h),����,����(m/s),���J
2024/01/24,00:00,0.500,0.750,0.476,0.947,0.662,0.312,0.553,0.517,�k��,5.6,��
2024/01/24,00:10,0.500,0.749,0.476,0.944,0.663,0.310,0.555,0.518,�k��,4.4,��
2024/01/24,00:20,0.500,0.748,0.475,0.944,0.663,0.311,0.554,0.518,�k�k��,4.6,��
2024/01/24,00:30,0.502,0.748,0.475,0.943,0.662,0.311,0.554,0.519,�k��,5.9,��
2024/01/24,00:40,0.501,0.750,0.476,0.943,0.662,0.311,0.553,0.519,�k��,4.7,��
2024/01/24,00:50,0.500,0.749,0.475,0.945,0.663,0.311,0.555,0.519,���k��,6.1,��
2024/01/24,01:00,0.502,0.749,0.477,0.945,0.664,0.311,0.554,0.519,���k��,7.1,��
2024/01/24,01:10,0.500,0.752,0.477,0.942,0.663,0.311,0.553,0.519,���k��,6.3,��
2024/01/24,01:20,0.500,0.749,0.475,0.945,0.665,0.312,0.554,0.518,�k��,6.1,��
2024/01/24,01:30,0.500,0.751,0.475,0.943,0.664,0.310,0.555,0.519,���k��,8.0,��
2024/01/24,01:40,0.501,0.749,0.476,0.946,0.663,0.311,0.554,0.519,���k��,8.3,��
2024/01/24,01:50,0.502,0.750,0.476,0.944,0.663,0.310,0.553,0.518,���k��,6.7,��
2024/01/24,02:00,0.502,0.750,0.476,0.945,0.663,0.311,0.553,0.520,�k��,7.6,��
2024/01/24,02:10,0.499,0.750,0.474,0.946,0.662,0.310,0.554,0.520,�k��,7.3,��
2024/01/24,02:20,0.500,0.751,0.474,0.944,0.663,0.310,0.554,0.520,�k��,6.3,��
2024/01/24,02:30,0.500,0.750,0.475,0.946,0.664,0.310,0.554,0.519,�k��,5.4,��
2024/01/24,02:40,0.501,0.750,0.476,0.944,0.663,0.310,0.554,0.519,�k��,6.5,��
2024/01/24,02:50,0.501,0.749,0.474,0.946,0.664,0.311,0.553,0.518,�k��,4.9,��
2024/01/24,03:00,0.500,0.751,0.475,0.947,0.663,0.309,0.555,0.520,�k��,6.3,��
2024/01/24,03:10,0.502,0.748,0.475,0.945,0.663,0.309,0.554,0.520,�k��,5.6,��
2024/01/24,03:20,0.501,0.749,0.475,0.946,0.663,0.310,0.554,0.520,���k��,6.3,��
2024/01/24,03:30,0.501,0.752,0.476,0.946,0.663,0.309,0.555,0.519,���k��,5.1,��
2024/01/24,03:40,0.500,0.749,0.477,0.944,0.663,0.311,0.553,0.519,���k��,5.2,��
2024/01/24,03:50,0.500,0.751,0.476,0.947,0.663,0.312,0.552,0.521,���k��,5.3,��
2024/01/24,04:00,0.500,0.750,0.476,0.946,0.664,0.311,0.553,0.519,���k��,4.7,��
2024/01/24,04:10,0.500,0.750,0.476,0.947,0.664,0.310,0.553,0.520,���k��,4.0,��
2024/01/24,04:20,0.500,0.750,0.476,0.946,0.664,0.311,0.553,0.518,���k��,3.3,��
2024/01/24,04:30,0.500,0.750,0.475,0.946,0.665,0.309,0.553,0.520,���k��,4.2,��
2024/01/24,04:40,0.499,0.749,0.476,0.944,0.665,0.311,0.553,0.519,��,2.3,��
2024/01/24,04:50,0.501,0.750,0.476,0.945,0.663,0.310,0.552,0.520,��,2.3,��
2024/01/24,05:00,0.500,0.751,0.474,0.944,0.664,0.311,0.552,0.520,��,2.2,��
2024/01/24,05:10,0.501,0.751,0.475,0.946,0.664,0.311,0.553,0.519,���k��,0.6,��
2024/01/24,05:20,0.499,0.752,0.476,0.946,0.664,0.310,0.553,0.519,�쐼,0.8,��
2024/01/24,05:30,0.500,0.751,0.474,0.943,0.664,0.310,0.552,0.518,-,CALM,��
2024/01/24,05:40,0.499,0.748,0.476,0.947,0.661,0.310,0.551,0.519,���쐼,1.2,��
2024/01/24,05:50,0.499,0.749,0.474,0.945,0.665,0.311,0.552,0.519,��,1.2,��
2024/01/24,06:00,0.500,0.751,0.475,0.945,0.664,0.311,0.551,0.517,���쐼,2.6,��
2024/01/24,06:10,0.499,0.750,0.476,0.944,0.662,0.311,0.551,0.519,���k��,1.9,��
2024/01/24,06:20,0.500,0.750,0.474,0.944,0.662,0.310,0.550,0.517,�k�k��,1.5,��
2024/01/24,06:30,0.500,0.751,0.475,0.944,0.664,0.309,0.552,0.520,�k,2.6,��
2024/01/24,06:40,0.500,0.749,0.474,0.943,0.664,0.311,0.553,0.518,�k�k��,2.5,��
2024/01/24,06:50,0.501,0.750,0.475,0.945,0.663,0.311,0.551,0.517,�k��,4.3,��
2024/01/24,07:00,0.499,0.749,0.475,0.944,0.664,0.310,0.552,0.519,���k��,5.1,��
2024/01/24,07:10,0.499,0.749,0.473,0.945,0.663,0.310,0.552,0.519,��,9.6,��
2024/01/24,07:20,0.500,0.749,0.472,0.944,0.664,0.309,0.552,0.519,��,11.9,��
2024/01/24,07:30,0.500,0.751,0.473,0.943,0.661,0.308,0.552,0.518,���k��,13.0,��
2024/01/24,07:40,0.498,0.749,0.472,0.945,0.663,0.308,0.553,0.519,���k��,10.5,��
2024/01/24,07:50,0.502,0.752,0.473,0.944,0.661,0.308,0.552,0.517,��,11.6,��
2024/01/24,08:00,0.500,0.752,0.472,0.948,0.664,0.307,0.552,0.517,��,9.5,��
2024/01/24,08:10,0.501,0.749,0.473,0.945,0.663,0.309,0.553,0.520,��,7.4,��
2024/01/24,08:20,0.501,0.752,0.472,0.944,0.663,0.308,0.552,0.519,��,9.2,��
2024/01/24,08:30,0.501,0.749,0.473,0.946,0.663,0.307,0.553,0.519,��,7.9,��
2024/01/24,08:40,0.500,0.751,0.476,0.946,0.663,0.307,0.552,0.520,��,9.8,��
2024/01/24,08:50,0.500,0.750,0.473,0.945,0.663,0.307,0.553,0.519,��,11.4,��
2024/01/24,09:00,0.501,0.751,0.475,0.946,0.663,0.308,0.554,0.518,���쐼,8.3,��
2024/01/24,09:10,0.500,0.752,0.475,0.946,0.663,0.307,0.552,0.520,���쐼,7.8,��
2024/01/24,09:20,0.501,0.752,0.474,0.946,0.665,0.308,0.551,0.520,���쐼,7.0,��
2024/01/24,09:30,0.499,0.751,0.475,0.946,0.663,0.309,0.553,0.519,���쐼,8.0,��
2024/01/24,09:40,0.501,0.752,0.477,0.947,0.663,0.308,0.554,0.520,���쐼,9.0,��
2024/01/24,09:50,0.501,0.752,0.476,0.946,0.667,0.309,0.552,0.520,���쐼,6.5,��
2024/01/24,10:00,0.500,0.754,0.474,0.947,0.664,0.308,0.550,0.521,��,8.1,��
2024/01/24,10:10,0.502,0.752,0.477,0.946,0.664,0.311,0.552,0.519,���쐼,7.3,��
2024/01/24,10:20,0.501,0.752,0.476,0.948,0.664,0.308,0.551,0.520,���쐼,7.5,��
2024/01/24,10:30,0.500,0.754,0.478,0.948,0.665,0.308,0.550,0.520,-,-,��
2024/01/24,10:40,0.502,0.750,0.477,0.946,0.664,0.310,0.552,0.520,-,-,��
2024/01/24,10:50,0.501,0.753,0.477,0.948,0.665,0.310,0.552,0.520,-,-,��
2024/01/24,11:00,0.503,0.752,0.477,0.948,0.666,0.310,0.553,0.519,-,-,��
2024/01/24,11:10,0.501,0.754,0.478,0.950,0.664,0.309,0.551,0.519,-,-,��
2024/01/24,11:20,0.502,0.753,0.478,0.947,0.665,0.309,0.552,0.521,-,-,��
2024/01/24,11:30,0.501,0.751,0.476,0.947,0.668,0.310,0.552,0.521,-,-,��
2024/01/24,11:40,0.501,0.753,0.478,0.947,0.667,0.310,0.553,0.521,-,-,��
2024/01/24,11:50,0.501,0.752,0.477,0.948,0.665,0.310,0.552,0.520,-,-,��
2024/01/24,12:00,0.503,0.755,0.477,0.950,0.667,0.311,0.553,0.521,-,-,��
2024/01/24,12:10,0.502,0.756,0.477,0.948,0.667,0.309,0.554,0.521,-,-,��
2024/01/24,12:20,0.504,0.753,0.477,0.948,0.669,0.309,0.553,0.520,-,-,��
2024/01/24,12:30,0.504,0.753,0.477,0.947,0.668,0.309,0.554,0.520,-,-,��
2024/01/24,12:40,0.503,0.754,0.478,0.950,0.666,0.310,0.553,0.521,-,-,��
2024/01/24,12:50,0.502,0.754,0.477,0.950,0.668,0.312,0.553,0.522,-,-,��
2024/01/24,13:00,0.504,0.756,0.479,0.948,0.669,0.311,0.555,0.523,-,-,��
2024/01/24,13:10,0.504,0.757,0.478,0.948,0.668,0.311,0.554,0.523,-,-,��
2024/01/24,13:20,0.504,0.756,0.481,0.949,0.668,0.312,0.553,0.522,-,-,��
2024/01/24,13:30,0.504,0.755,0.480,0.949,0.667,0.310,0.555,0.521,-,-,��
2024/01/24,13:40,0.504,0.755,0.480,0.947,0.666,0.309,0.555,0.520,-,-,��
2024/01/24,13:50,0.505,0.757,0.479,0.951,0.667,0.311,0.555,0.521,-,-,��
2024/01/24,14:00,0.504,0.756,0.479,0.952,0.669,0.311,0.553,0.521,-,-,��
2024/01/24,14:10,0.505,0.755,0.479,0.947,0.667,0.310,0.553,0.520,��,8.1,��
2024/01/24,14:20,0.503,0.755,0.478,0.950,0.671,0.311,0.554,0.520,��,6.4,��
2024/01/24,14:30,0.503,0.757,0.480,0.952,0.669,0.313,0.554,0.521,��,8.6,��
2024/01/24,14:40,0.504,0.755,0.480,0.950,0.670,0.312,0.554,0.520,���쐼,7.4,��
2024/01/24,14:50,0.504,0.756,0.479,0.951,0.671,0.311,0.555,0.522,��,7.3,��
2024/01/24,15:00,0.502,0.755,0.479,0.949,0.670,0.311,0.554,0.521,���k��,4.9,��
2024/01/24,15:10,0.504,0.757,0.479,0.951,0.671,0.311,0.554,0.522,���k��,6.6,��
2024/01/24,15:20,0.504,0.755,0.478,0.952,0.670,0.311,0.554,0.522,��,5.6,��
2024/01/24,15:30,0.503,0.757,0.480,0.952,0.671,0.312,0.555,0.523,���k��,6.7,��
2024/01/24,15:40,0.503,0.759,0.479,0.951,0.668,0.311,0.555,0.520,���k��,6.5,��
2024/01/24,15:50,0.503,0.758,0.479,0.951,0.670,0.309,0.553,0.522,���k��,6.6,��
2024/01/24,16:00,0.503,0.758,0.478,0.953,0.669,0.310,0.556,0.519,���k��,4.2,��
2024/01/24,16:10,0.505,0.757,0.481,0.949,0.670,0.310,0.554,0.520,���k��,7.7,��
2024/01/24,16:20,0.505,0.758,0.480,0.951,0.670,0.310,0.554,0.522,��,7.7,��
2024/01/24,16:30,0.503,0.756,0.481,0.954,0.671,0.310,0.556,0.521,��,10.2,��
2024/01/24,16:40,0.505,0.758,0.479,0.952,0.670,0.311,0.555,0.520,��,11.6,��
2024/01/24,16:50,0.504,0.757,0.477,0.951,0.669,0.311,0.554,0.520,��,11.7,��
2024/01/24,17:00,0.502,0.757,0.477,0.954,0.667,0.311,0.555,0.522,��,14.1,��
2024/01/24,17:10,0.503,0.757,0.477,0.952,0.668,0.309,0.556,0.520,��,14.2,��
2024/01/24,17:20,0.503,0.756,0.477,0.949,0.667,0.309,0.556,0.521,���쐼,11.6,��
2024/01/24,17:30,0.502,0.756,0.478,0.950,0.668,0.309,0.555,0.522,��,13.8,��
2024/01/24,17:40,0.501,0.756,0.477,0.950,0.669,0.309,0.555,0.521,��,11.0,��
2024/01/24,17:50,0.503,0.755,0.477,0.950,0.668,0.310,0.555,0.521,��,11.8,��
2024/01/24,18:00,0.501,0.753,0.477,0.949,0.667,0.310,0.554,0.523,��,13.8,��
2024/01/24,18:10,0.503,0.755,0.478,0.951,0.668,0.309,0.554,0.522,���쐼,13.0,��
2024/01/24,18:20,0.502,0.755,0.478,0.947,0.667,0.310,0.553,0.521,��,14.1,��
2024/01/24,18:30,0.502,0.755,0.478,0.949,0.669,0.310,0.553,0.522,��,13.1,��
2024/01/24,18:40,0.501,0.755,0.477,0.951,0.669,0.310,0.554,0.522,��,10.2,��
2024/01/24,18:50,0.501,0.756,0.477,0.951,0.672,0.311,0.554,0.522,��,14.6,��
2024/01/24,19:00,0.502,0.756,0.478,0.951,0.669,0.311,0.553,0.523,��,16.3,��
2024/01/24,19:10,0.503,0.757,0.478,0.951,0.668,0.310,0.552,0.522,��,13.0,��
2024/01/24,19:20,0.503,0.756,0.478,0.952,0.666,0.311,0.552,0.522,���쐼,11.9,��
2024/01/24,19:30,0.504,0.757,0.478,0.951,0.668,0.312,0.552,0.521,��,15.2,��
2024/01/24,19:40,0.504,0.758,0.478,0.952,0.667,0.311,0.553,0.524,��,14.2,��
2024/01/24,19:50,0.505,0.758,0.480,0.953,0.667,0.311,0.553,0.522,��,12.5,��
2024/01/24,20:00,0.504,0.757,0.480,0.955,0.668,0.312,0.552,0.523,��,11.3,��
2024/01/24,20:10,0.504,0.757,0.480,0.953,0.667,0.312,0.552,0.523,��,14.4,��
2024/01/24,20:20,0.504,0.758,0.480,0.954,0.670,0.313,0.553,0.521,��,13.5,��
2024/01/24,20:30,0.505,0.757,0.478,0.954,0.669,0.312,0.551,0.522,���k��,10.9,��
2024/01/24,20:40,0.503,0.758,0.480,0.954,0.669,0.313,0.553,0.524,���k��,10.7,��
2024/01/24,20:50,0.503,0.756,0.481,0.954,0.669,0.312,0.550,0.523,���k��,7.7,��
2024/01/24,21:00,0.504,0.757,0.481,0.952,0.670,0.311,0.553,0.522,�k��,8.0,��
2024/01/24,21:10,0.503,0.758,0.479,0.952,0.670,0.315,0.553,0.522,�k��,6.8,��
2024/01/24,21:20,0.504,0.757,0.479,0.953,0.670,0.312,0.553,0.522,�k��,7.0,��
2024/01/24,21:30,0.503,0.754,0.480,0.954,0.668,0.313,0.553,0.522,�k��,6.8,��
2024/01/24,21:40,0.503,0.757,0.479,0.953,0.671,0.312,0.553,0.522,�k��,5.6,��
2024/01/24,21:50,0.503,0.757,0.478,0.954,0.671,0.310,0.553,0.523,�k��,6.1,��
2024/01/24,22:00,0.503,0.756,0.479,0.954,0.670,0.311,0.553,0.524,���k��,7.3,��
2024/01/24,22:10,0.504,0.758,0.479,0.954,0.670,0.311,0.553,0.522,���k��,5.3,��
2024/01/24,22:20,0.503,0.756,0.478,0.954,0.670,0.311,0.555,0.522,���k��,6.1,��
2024/01/24,22:30,0.503,0.758,0.478,0.952,0.672,0.312,0.555,0.523,�k��,6.3,��
2024/01/24,22:40,0.503,0.757,0.480,0.953,0.670,0.311,0.553,0.522,�k��,4.4,��
2024/01/24,22:50,0.505,0.758,0.480,0.953,0.670,0.311,0.554,0.520,�k��,4.1,��
2024/01/24,23:00,0.503,0.756,0.478,0.954,0.671,0.310,0.554,0.521,���k��,7.6,��
2024/01/24,23:10,0.505,0.757,0.480,0.957,0.672,0.312,0.555,0.522,���k��,7.8,��
2024/01/24,23:20,0.503,0.757,0.480,0.957,0.671,0.310,0.555,0.520,�k��,8.4,��
2024/01/24,23:30,0.504,0.756,0.479,0.953,0.670,0.310,0.555,0.520,���k��,5.5,��
2024/01/24,23:40,0.503,0.758,0.479,0.955,0.669,0.310,0.553,0.521,���k��,6.7,��
2024/01/24,23:50,0.501,0.756,0.480,0.955,0.670,0.311,0.555,0.520,���k��,6.6,��
